Dewpoint
13 14 7 5 5 4 3 2 2 3 2 3 7 6 8 8 8 9 11 10 10 10 9 8 10 9 8 8 8 7 7 7 8 9 9 9 10 9 9 10 10 10 9
14 14 12 6 5 3 3 2 2 2 3 4 7 7 7 11 9 9 9 10 11 12 11 11 10 10 6 9 7 7 8 9 10 10 9 9 8 8 7 9 10 10 11
15 14 14 10 5 4 4 3 3 3 3 7 11 7 7 7 9 10 11 13 12 12 12 11 7 8 5 5 5 6 8 9 8 9 8 9 9 8 7 7 8 10 10
14 14 14 12 6 5 5 4 4 4 5 12 10 7 8 11 11 9 11 11 11 12 12 9 6 8 6 1 1 3 8 10 9 9 10 11 8 9 7 5 5 7 6
14 14 15 12 7 5 5 5 5 5 6 7 7 8 12 12 11 8 8 10 11 11 10 5 5 6 3 -1 -3 -1 7 11 10 10 10 10 8 9 8 1 4 3 2
14 14 14 14 11 5 5 6 6 6 7 8 9 13 13 13 11 8 6 6 6 4 0 0 3 1 -3 -6 -7 -4 6 11 9 9 9 9 9 9 5 5 -2 -1 -0
14 13 14 14 14 9 5 6 7 8 9 10 13 14 13 12 12 8 4 2 1 -0 -3 -5 -5 -7 -9 -10 -9 -4 9 10 9 9 9 9 9 8 3 2 6 9 8
13 13 15 15 14 11 6 7 7 8 11 12 13 14 12 12 10 7 3 -4 -7 -8 -9 -9 -10 -11 -10 -10 -9 3 10 10 10 9 9 8 8 4 4 8 8 8 10
-1 13 14 15 14 14 13 11 8 9 10 13 13 14 12 11 8 5 -2 -9 -13 -13 -12 -11 -10 -9 -9 -9 -2 8 9 9 9 9 9 7 3 2 9 11 10 10 9
-5 8 15 14 15 14 14 14 12 10 11 13 14 13 12 11 7 3 -9 -16 -13 -12 -11 -9 -8 -8 -8 -6 7 9 9 9 10 9 6 4 4 10 10 7 8 6 7
-6 -6 8 14 14 14 13 14 14 11 11 13 14 13 13 10 7 1 -15 -15 -11 -9 -9 -8 -7 -7 -5 6 9 8 8 8 9 7 4 3 10 11 10 7 8 3 2
-4 -5 -6 10 12 13 13 13 14 14 12 13 14 13 12 10 7 -3 -14 -11 -10 -7 -7 -7 -6 -5 -0 8 8 8 8 6 5 4 6 10 11 11 10 8 6 5 -1
-4 -4 -4 -6 0 8 13 13 13 14 13 12 13 14 12 10 7 -5 -13 -9 -8 -7 -6 -6 -5 -4 2 7 7 6 4 3 3 9 11 11 11 8 9 9 6 -0 -4
-4 -4 -4 -5 -7 -5 -0 11 13 14 13 13 13 13 13 11 7 -5 -11 -7 -6 -6 -5 -4 -2 -2 0 3 3 4 3 4 10 10 10 10 10 9 8 6 3 -0 -4
-4 -4 -4 -4 -5 -6 -6 -4 11 13 14 13 13 13 13 11 8 -2 -9 -7 -6 -4 -4 1 3 4 4 4 4 4 3 5 8 10 9 8 8 8 7 4 0 -2 -5
-4 -4 -4 -4 -4 -4 -4 -4 -3 11 13 13 13 14 13 12 6 -1 -8 -7 -5 -4 -2 1 4 5 6 5 4 2 2 3 8 9 9 8 8 8 7 1 -3 -5 -6
-4 -4 -4 -4 -4 -3 -3 -4 -4 -4 11 13 13 12 13 11 3 0 -5 -6 -4 -1 3 4 5 6 7 6 5 3 2 2 2 4 7 8 8 5 -0 -4 -6 -9 -12
-3 -4 -4 -4 -3 -4 -3 -3 -3 -2 -0 8 12 9 6 7 5 3 -0 -1 -2 1 4 5 5 5 5 4 3 3 1 1 1 -0 -2 -1 -1 -3 -6 -9 -11 -13 -12
-4 -4 -3 -3 -3 -3 -4 -3 -1 2 1 9 8 10 9 7 7 4 2 2 1 3 5 6 5 5 5 4 4 1 2 2 2 1 -1 -4 -6 -7 -9 -8 -9 -10 -10
-4 -4 -3 -3 -3 -3 -3 -3 -1 2 6 7 10 10 10 8 7 5 4 3 2 3 4 5 5 5 4 1 0 2 5 5 4 1 -2 -5 -5 -6 -8 -9 -8 -9 -12
-4 -2 -3 -3 -3 -3 -3 -2 3 9 5 3 8 10 10 9 8 6 4 2 1 2 3 4 5 2 1 2 2 3 4 4 3 2 -0 -1 -4 -7 -8 -11 -17 -16 -13
-1 -2 -2 -2 -3 -3 -3 -2 1 6 6 7 6 8 8 8 8 5 4 2 1 3 4 3 1 -0 1 1 2 3 4 4 4 3 1 1 -6 -7 -10 -11 -13 -12 -12
-2 -1 -1 -2 -2 -2 -2 -1 2 6 8 8 8 7 7 7 7 7 7 1 -0 2 3 3 1 -2 -4 -5 -9 -6 -3 -3 2 2 2 -1 -6 -8 -8 -9 -9 -11 -11
-5 -5 -5 -4 -5 -3 -1 -1 -1 1 5 6 8 7 7 7 5 5 3 2 -1 -0 3 2 0 -2 -10 -16 -11 -7 -6 -7 -7 -5 -3 -6 -6 -5 -5 -8 -10 -10 -10
-3 -3 -3 -1 -1 -2 -1 -0 -1 1 3 5 6 8 7 7 6 4 4 3 -2 -3 -2 -4 -11 -15 -16 -15 -11 -9 -6 -6 -7 -8 -6 -5 -5 -5 -7 -12 -10 -10 -12
-0 1 2 2 3 2 2 2 -0 1 6 7 7 6 6 6 4 2 0 -3 -4 -7 -9 -13 -14 -15 -15 -12 -8 -6 -6 -7 -4 -7 -8 -5 -6 -7 -11 -10 -12 -11 -15
Wind_Speed
7 6 12 14 16 17 17 17 16 16 16 16 15 14 13 12 11 11 11 10 10 7 6 8 8 8 7 7 7 7 8 8 9 10 9 9 9 8 7 8 8 8 7
6 6 8 14 17 18 17 16 16 16 17 16 15 14 13 11 10 9 9 8 9 8 8 8 7 5 5 8 7 7 8 10 10 10 8 8 8 7 6 6 7 6 7
7 9 9 15 17 18 18 18 17 16 16 14 13 13 12 11 10 8 9 11 8 9 8 6 4 4 5 6 8 9 9 10 10 10 8 6 5 5 4 4 4 5 6
7 11 9 14 17 18 18 18 18 16 15 16 13 12 12 12 12 9 8 8 8 9 8 7 6 6 4 5 6 9 10 11 9 8 6 9 3 3 3 3 2 2 1
6 9 10 12 17 18 18 18 18 17 16 15 14 13 13 15 12 9 9 9 10 11 9 9 8 7 5 4 5 10 12 11 12 9 6 5 2 2 4 2 2 2 2
4 6 7 5 12 18 18 18 18 17 17 16 15 15 17 16 10 8 9 10 10 10 9 8 8 7 5 5 7 12 16 13 11 9 6 2 4 4 3 3 3 3 4
6 4 11 10 10 18 18 18 19 18 18 17 17 18 17 14 10 9 9 10 11 11 10 9 8 6 5 6 10 16 19 15 12 11 7 3 1 1 2 5 8 8 7
10 9 15 16 13 14 19 18 19 19 18 18 20 20 18 14 12 10 10 10 11 10 9 8 7 6 7 10 14 20 18 16 16 12 8 5 2 1 8 10 11 14 14
9 13 15 20 19 19 19 19 20 20 20 20 22 20 17 14 12 11 11 11 11 10 9 8 7 8 10 13 19 20 18 16 15 13 9 4 1 9 11 12 15 13 10
12 13 14 19 19 23 23 21 22 23 22 22 23 21 17 14 13 12 11 11 11 10 9 9 9 10 13 18 20 19 18 17 16 13 7 3 9 14 15 11 6 4 3
17 16 16 17 18 21 25 24 23 25 25 24 26 19 18 16 15 13 12 11 11 10 10 9 11 13 17 21 20 19 17 15 13 11 6 8 13 16 12 8 5 3 3
15 15 17 20 20 22 25 27 28 27 28 28 28 21 20 18 16 14 13 13 12 11 11 11 14 16 20 21 19 16 14 12 10 10 9 14 17 14 7 4 1 3 5
21 18 18 20 20 21 23 27 30 32 31 30 29 25 22 20 18 16 15 15 14 13 13 16 17 19 22 20 18 15 11 8 11 15 18 17 13 8 5 2 2 4 4
28 27 23 24 23 24 21 25 29 33 34 33 33 30 27 24 20 17 16 15 15 15 16 17 19 20 21 19 15 12 9 10 17 17 18 14 7 6 3 1 1 2 4
27 31 28 26 28 25 24 22 27 32 37 36 36 34 31 26 23 19 17 16 16 18 19 20 19 19 19 17 14 12 11 15 17 17 14 11 9 4 2 4 1 2 3
22 23 22 22 26 28 27 22 23 28 38 38 39 39 33 29 25 22 19 18 19 20 21 20 18 17 17 15 13 12 12 14 19 16 13 12 11 8 8 3 1 1 2
26 25 21 18 19 22 23 26 23 18 26 42 43 41 35 31 25 22 20 21 21 22 21 21 19 19 19 17 14 13 12 12 13 16 17 18 15 11 5 3 2 1 1
28 26 26 24 21 21 23 23 24 23 24 30 38 32 30 27 21 21 22 21 22 23 22 21 19 20 18 17 15 13 12 11 11 10 9 9 8 6 5 3 3 2 0
21 23 25 26 26 23 23 26 23 25 25 24 29 30 25 21 18 22 20 20 22 23 22 22 21 19 18 18 16 15 13 11 10 8 8 7 7 6 5 3 2 1 1
13 16 18 24 26 25 24 23 24 24 22 20 26 32 28 26 21 17 20 23 23 25 25 24 23 21 19 18 18 17 14 10 7 6 5 6 6 6 4 4 2 2 2
10 8 10 18 24 27 27 24 25 24 22 21 28 36 31 27 28 25 22 23 25 25 25 25 24 23 23 21 22 19 16 12 9 8 6 6 6 6 5 3 1 0 3
11 12 13 18 23 26 26 25 25 27 25 24 27 29 31 33 35 28 24 18 22 24 25 25 26 26 24 24 22 21 13 12 11 8 7 7 7 5 4 1 1 3 4
16 17 16 18 23 29 28 26 27 27 29 30 30 32 34 32 31 32 32 19 23 25 25 24 24 25 28 28 23 12 9 8 17 11 10 9 7 5 3 1 4 5 5
40 44 42 40 42 35 33 34 33 32 34 34 39 39 37 34 31 28 29 30 21 26 27 26 25 24 25 27 27 16 8 11 11 12 15 12 8 6 2 3 6 5 5
52 50 44 37 38 37 39 41 37 36 32 35 35 38 39 35 30 28 29 33 23 26 26 26 26 25 24 26 25 20 12 15 13 16 21 16 11 7 5 5 6 6 7
45 37 30 32 36 36 40 47 40 34 37 37 37 38 36 34 32 28 27 32 22 24 24 24 24 22 23 24 21 19 15 22 15 18 18 18 11 7 6 7 7 8 10
Wind_Direction
205 203 197 187 183 177 175 171 169 167 162 160 157 157 154 152 150 146 145 145 147 148 127 119 122 132 136 137 133 130 127 117 107 106 99 94 86 76 71 70 73 75 76
225 222 209 204 191 184 179 174 172 169 166 165 162 161 160 154 154 156 159 155 151 141 126 121 134 141 153 139 135 135 131 124 120 112 88 78 69 64 59 68 69 82 82
219 229 225 214 200 191 185 180 176 173 171 167 165 163 163 165 162 159 159 155 154 153 148 148 176 171 141 143 139 138 140 133 121 111 99 103 70 91 79 81 88 82 85
226 231 239 221 206 197 193 185 181 178 177 171 174 171 170 168 163 165 172 177 174 175 172 183 194 180 180 159 150 139 148 144 130 122 155 127 108 66 54 60 68 91 61
197 220 234 228 218 206 202 191 187 183 179 177 179 182 178 173 176 182 190 197 203 211 220 224 207 212 209 193 173 153 163 148 132 134 174 136 86 50 351 12 60 64 67
261 221 210 252 248 222 208 199 194 188 184 181 183 181 183 185 193 216 206 212 222 230 238 221 216 222 222 198 172 162 167 160 147 149 143 230 245 299 345 26 34 73 84
270 244 215 243 277 237 218 206 199 194 192 189 187 192 199 206 222 231 236 228 227 229 231 228 226 223 203 178 165 162 167 168 160 156 159 145 282 58 22 66 64 81 81
269 253 224 229 250 244 228 216 208 202 202 201 200 204 208 220 239 239 232 235 228 224 222 220 215 200 180 166 159 165 169 166 157 156 180 192 267 102 104 89 78 93 86
273 264 234 228 233 232 230 225 215 210 209 210 207 208 215 226 239 244 242 228 228 220 214 207 199 182 167 158 160 168 170 165 163 171 191 211 95 124 118 113 112 104 106
288 270 238 233 232 238 228 229 225 213 211 214 213 217 223 231 239 242 242 226 217 215 209 198 183 168 159 156 165 170 176 177 179 193 188 165 138 137 133 144 144 111 102
287 269 270 251 237 238 238 234 229 224 216 214 218 224 225 233 241 243 233 227 215 211 206 190 172 162 157 160 171 176 181 184 192 200 203 161 146 140 140 137 126 56 21
279 278 259 254 256 250 248 243 235 229 220 219 222 231 229 233 242 240 230 221 217 205 196 180 169 161 162 170 177 180 187 195 193 192 156 152 146 147 157 124 85 2 20
272 271 268 258 262 264 250 245 239 227 226 220 227 235 234 233 238 236 226 215 208 201 187 177 172 165 167 177 184 190 195 177 154 151 141 149 150 170 256 165 2 351 37
273 272 269 267 263 265 266 255 243 239 230 231 223 230 232 233 232 232 223 211 202 193 184 178 172 170 175 179 187 195 191 164 150 162 161 166 176 209 197 72 1 9 20
277 269 267 267 263 262 265 269 253 247 235 235 229 225 229 230 230 228 218 207 195 187 182 177 178 179 180 183 190 203 192 167 168 174 177 186 193 193 285 327 357 29 12
278 277 274 266 260 261 262 267 266 248 231 241 231 221 226 228 227 226 220 206 195 185 181 183 184 184 185 191 192 189 189 179 182 186 192 203 207 227 272 260 246 342 359
281 274 271 271 267 259 260 261 268 277 249 231 230 214 216 216 220 224 216 205 193 187 186 185 186 192 199 197 202 194 191 188 189 197 209 221 232 244 223 211 213 183 71
275 276 272 274 271 262 255 254 255 255 255 254 236 225 202 204 211 226 215 203 195 192 191 191 192 191 197 199 192 188 188 185 184 179 176 176 185 188 186 179 169 156 112
270 275 273 269 268 257 254 255 253 244 250 252 249 236 218 192 204 223 216 210 200 196 194 198 200 203 198 193 194 182 177 173 165 161 163 164 168 168 163 165 165 168 261
272 266 264 261 259 254 247 251 248 235 234 239 234 224 222 216 207 222 218 221 209 202 199 201 208 202 205 191 176 171 171 175 176 168 167 163 154 157 157 152 166 282 303
268 254 259 258 256 253 253 243 236 225 226 230 228 222 220 223 204 202 216 222 215 209 207 204 203 199 185 180 172 162 162 172 178 179 168 160 156 157 160 173 186 329 340
269 262 255 253 261 257 250 253 245 227 224 225 224 228 226 205 206 190 200 230 221 215 213 206 202 190 191 183 181 165 157 169 185 188 175 167 164 170 180 200 289 331 321
294 288 270 276 271 258 245 242 232 223 216 209 207 206 205 209 214 212 216 218 226 221 222 213 204 203 195 189 191 174 162 187 179 181 177 178 182 189 195 303 304 310 310
295 301 295 271 272 256 240 230 231 226 217 216 212 205 205 204 204 198 201 206 232 223 221 220 213 205 206 195 188 196 201 195 166 167 175 179 178 179 215 291 294 292 298
298 297 289 274 261 247 235 227 227 222 224 217 214 211 203 201 202 198 203 198 216 222 217 216 208 202 203 201 200 204 215 194 181 172 169 171 175 182 225 267 265 272 297
288 285 276 257 248 238 226 218 216 216 213 211 205 206 197 192 188 190 195 185 200 215 212 209 204 199 199 200 207 209 209 187 188 175 176 173 182 186 217 231 257 269 294
Height
1514 1514 1515 1516 1517 1518 1519 1520 1521 1523 1524 1525 1527 1528 1530 1531 1532 1532 1533 1534 1535 1535 1536 1536 1537 1537 1538 1538 1539 1539 1540 1540 1540 1541 1541 1541 1541 1541 1541 1541 1541 1540 1540
1514 1515 1516 1516 1517 1518 1519 1520 1521 1523 1524 1525 1526 1528 1529 1531 1532 1532 1533 1534 1534 1535 1536 1536 1537 1537 1538 1539 1539 1540 1540 1541 1541 1541 1542 1542 1542 1542 1542 1542 1542 1542 1541
1513 1514 1516 1517 1518 1518 1519 1520 1521 1523 1524 1526 1527 1528 1529 1530 1532 1533 1533 1534 1535 1535 1536 1537 1537 1538 1538 1539 1539 1540 1540 1541 1542 1542 1543 1543 1543 1544 1544 1543 1543 1543 1543
1513 1515 1516 1516 1517 1519 1519 1520 1521 1522 1524 1526 1527 1528 1529 1530 1531 1533 1534 1534 1535 1536 1535 1536 1537 1537 1538 1538 1539 1540 1540 1541 1542 1543 1543 1544 1544 1544 1544 1544 1544 1543 1543
1512 1514 1515 1516 1517 1518 1519 1520 1521 1522 1523 1525 1526 1527 1528 1529 1530 1531 1533 1534 1535 1535 1535 1535 1536 1537 1537 1538 1539 1540 1540 1541 1542 1544 1544 1544 1544 1545 1545 1545 1544 1543 1543
1512 1513 1514 1515 1516 1517 1518 1520 1521 1522 1523 1524 1525 1527 1528 1528 1530 1530 1531 1532 1533 1534 1534 1534 1535 1535 1536 1537 1538 1539 1540 1541 1543 1544 1545 1545 1545 1545 1545 1544 1544 1543 1543
1510 1512 1513 1514 1515 1516 1517 1518 1520 1521 1522 1523 1524 1525 1527 1528 1529 1529 1530 1530 1531 1532 1533 1533 1534 1534 1535 1536 1537 1538 1539 1541 1543 1545 1545 1545 1545 1545 1545 1545 1544 1545 1544
1511 1510 1511 1512 1513 1514 1515 1517 1518 1519 1521 1522 1523 1524 1525 1526 1528 1528 1528 1529 1529 1530 1531 1532 1533 1534 1535 1535 1536 1537 1539 1541 1543 1545 1545 1546 1545 1545 1545 1545 1545 1545 1546
1510 1509 1510 1510 1511 1513 1513 1514 1515 1517 1519 1520 1522 1523 1524 1524 1525 1526 1527 1527 1528 1529 1530 1531 1532 1533 1534 1535 1535 1537 1539 1541 1543 1545 1545 1546 1545 1545 1546 1547 1546 1546 1547
1509 1508 1508 1508 1509 1509 1511 1512 1512 1514 1516 1518 1519 1521 1522 1523 1523 1524 1525 1526 1526 1528 1528 1530 1531 1533 1534 1535 1535 1537 1539 1541 1543 1544 1545 1545 1545 1545 1546 1547 1548 1548 1547
1505 1506 1505 1505 1505 1506 1508 1509 1510 1512 1513 1515 1516 1518 1520 1521 1522 1522 1523 1524 1525 1526 1527 1529 1530 1532 1534 1535 1536 1537 1539 1541 1542 1544 1544 1545 1546 1546 1546 1547 1547 1547 1547
1501 1501 1502 1502 1502 1502 1504 1505 1506 1508 1509 1512 1513 1516 1517 1518 1519 1520 1521 1522 1523 1525 1526 1528 1529 1531 1533 1534 1536 1537 1539 1541 1542 1543 1544 1545 1546 1547 1547 1547 1547 1547 1547
1496 1496 1497 1498 1498 1498 1499 1500 1501 1502 1505 1508 1510 1512 1514 1515 1517 1517 1518 1520 1521 1523 1525 1526 1528 1530 1533 1534 1536 1538 1539 1541 1542 1544 1545 1546 1546 1548 1548 1548 1547 1546 1546
1490 1491 1492 1493 1494 1494 1495 1495 1495 1498 1500 1502 1505 1508 1510 1512 1513 1515 1515 1517 1519 1521 1523 1525 1527 1529 1531 1533 1535 1537 1539 1541 1543 1544 1545 1546 1547 1548 1548 1548 1547 1546 1546
1483 1483 1485 1487 1488 1490 1490 1491 1492 1493 1494 1497 1499 1502 1505 1508 1510 1512 1513 1514 1516 1519 1521 1524 1526 1528 1530 1532 1533 1536 1538 1541 1543 1543 1545 1546 1547 1547 1547 1547 1547 1547 1546
1478 1478 1479 1480 1482 1484 1485 1486 1487 1488 1487 1489 1492 1494 1498 1503 1507 1509 1510 1511 1512 1516 1519 1523 1526 1527 1529 1531 1532 1535 1537 1539 1542 1543 1544 1545 1546 1546 1546 1546 1546 1546 1546
1471 1472 1473 1474 1476 1477 1479 1481 1482 1483 1485 1484 1485 1485 1487 1493 1503 1508 1509 1509 1510 1513 1517 1521 1524 1527 1529 1530 1532 1534 1535 1538 1540 1541 1542 1544 1545 1546 1545 1545 1545 1545 1545
1465 1466 1467 1469 1470 1472 1474 1476 1478 1480 1480 1480 1481 1480 1480 1487 1498 1506 1509 1510 1509 1511 1515 1519 1523 1526 1529 1530 1531 1533 1534 1536 1538 1540 1541 1542 1543 1544 1544 1544 1544 1544 1544
1458 1460 1461 1464 1465 1467 1469 1471 1473 1475 1476 1478 1478 1477 1484 1486 1490 1505 1506 1512 1509 1510 1513 1517 1521 1524 1527 1529 1531 1532 1534 1535 1537 1539 1540 1541 1542 1543 1543 1544 1544 1544 1543
1453 1454 1455 1457 1460 1462 1464 1466 1468 1470 1472 1472 1475 1477 1478 1481 1491 1499 1504 1512 1510 1509 1512 1515 1519 1522 1526 1529 1531 1532 1534 1536 1537 1538 1539 1540 1541 1542 1542 1543 1543 1543 1543
1450 1450 1451 1452 1454 1457 1459 1460 1463 1465 1468 1470 1474 1477 1477 1475 1482 1494 1505 1506 1511 1508 1511 1513 1517 1520 1523 1526 1529 1532 1534 1536 1537 1538 1539 1540 1540 1541 1541 1541 1541 1541 1542
1449 1448 1448 1447 1448 1451 1453 1456 1458 1461 1463 1465 1468 1471 1474 1477 1481 1490 1498 1504 1506 1508 1511 1511 1513 1516 1521 1524 1527 1530 1534 1537 1537 1537 1538 1539 1540 1541 1541 1540 1540 1540 1540
1446 1447 1445 1443 1443 1444 1446 1450 1453 1455 1459 1461 1463 1467 1471 1475 1481 1482 1486 1498 1503 1506 1509 1512 1512 1514 1517 1521 1525 1526 1530 1531 1534 1537 1537 1538 1539 1540 1540 1540 1539 1538 1536
1437 1435 1435 1436 1434 1435 1438 1440 1443 1447 1451 1455 1460 1463 1467 1472 1477 1478 1483 1483 1497 1503 1507 1511 1512 1512 1516 1518 1521 1523 1525 1526 1528 1534 1535 1536 1538 1538 1539 1538 1538 1536 1535
1421 1418 1417 1418 1417 1419 1426 1430 1434 1438 1445 1448 1453 1460 1463 1468 1474 1476 1481 1478 1494 1501 1505 1508 1509 1510 1513 1517 1519 1521 1524 1524 1527 1526 1531 1533 1537 1536 1537 1536 1536 1534 1534
1405 1401 1401 1402 1403 1406 1412 1419 1424 1430 1435 1441 1448 1454 1459 1464 1469 1475 1480 1475 1488 1499 1502 1506 1508 1509 1512 1514 1517 1520 1523 1523 1523 1525 1527 1530 1535 1534 1534 1534 1533 1532 1531